This is the latest recevied weather packets stored in our database for station/object KC0UFP. If no packets are shown the sender has not sent any weather packets the latest 10 day(s).
| Time | Temp. | Humidity | Pressure | Rain* | Wind** | Luminosity | Snow |
|---|---|---|---|---|---|---|---|
| 1778070318 | 8.89° C | 90% | 1013.4 hPa | 0 mm | - | 88 W/m² | - |
| 1778070017 | 8.89° C | 90% | 1013.7 hPa | 0 mm | - | 58 W/m² | - |
| 1778069714 | 8.89° C | 90% | 1013.4 hPa | 0 mm | - | 35 W/m² | - |
| 1778069410 | 8.89° C | 90% | 1013.3 hPa | 0 mm | - | 39 W/m² | - |
| 1778069108 | 8.89° C | 90% | 1013 hPa | 0 mm | - | 43 W/m² | - |
| 1778068805 | 8.89° C | 91% | 1012.9 hPa | 0 mm | - | 46 W/m² | - |
| 1778068503 | 8.89° C | 91% | 1012.6 hPa | 0 mm | - | 43 W/m² | - |
| 1778068201 | 8.89° C | 91% | 1012.5 hPa | 0 mm | - | 37 W/m² | - |
| 1778067898 | 8.89° C | 92% | 1012.6 hPa | 0 mm | - | 39 W/m² | - |
| 1778067597 | 8.89° C | 92% | 1012.1 hPa | 0 mm | - | 36 W/m² | - |
| 1778067294 | 8.89° C | 91% | 1012.3 hPa | 0 mm | - | 28 W/m² | - |
| 1778066990 | 8.89° C | 92% | 1012.4 hPa | 0 mm | - | 20 W/m² | - |
| 1778066688 | 8.89° C | 91% | 1012.4 hPa | 0 mm | - | 15 W/m² | - |
| 1778066385 | 8.89° C | 91% | 1012 hPa | 0 mm | - | 9 W/m² | - |
| 1778066083 | 8.89° C | 91% | 1012.5 hPa | 0 mm | - | 4 W/m² | - |
| 1778065780 | 8.89° C | 91% | 1012.5 hPa | 0 mm | - | 2 W/m² | - |
| 1778065478 | 8.89° C | 92% | 1012.7 hPa | 0 mm | - | 1 W/m² | - |
| 1778065174 | 8.89° C | 92% | 1012.3 hPa | 0 mm | - | 1 W/m² | - |
| 1778064870 | 8.89° C | 92% | 1012.4 hPa | 0 mm | - | 0 W/m² | - |
| 1778064568 | 8.89° C | 92% | 1012.4 hPa | 0 mm | - | 0 W/m² | - |
| 1778064266 | 8.89° C | 92% | 1012 hPa | 0 mm | - | 0 W/m² | - |
| 1778063964 | 8.89° C | 93% | 1012.1 hPa | 0 mm | - | 0 W/m² | - |
| 1778063661 | 8.89° C | 93% | 1012.2 hPa | 0 mm | - | 0 W/m² | - |
| 1778063358 | 8.89° C | 93% | 1012.2 hPa | 0 mm | - | 0 W/m² | - |
| 1778063056 | 8.89° C | 93% | 1012.4 hPa | 0 mm | - | 0 W/m² | - |
* Rain latest hour (hover to see other rain measurements)
** Current wind speed in m/s (hover to see current wind gust speed)